Погода в Поломошном

Россия / Кемеровская область (Кузбасс)     55°44′26″N   84°57′46″E
темп.,
°C
ветер,
м/с
пор.,
м/с
влажн.,
%
обл.,
%
осадки,
мм/ч
давл.,
гПа
погр.,
м
27 февраля, сб
сб2701:00−25зюз41195100 0.1 1034680
04:00−25юз41096100 0.1 1035587
07:00−25юз41095100 0.3 1035550
10:00−25юз5993100 0.1 1036586
13:00−23зюз5891100 0.1 1037660
16:00−22юз5890100 0.1 1037665
19:00−24юз3795100 0.1 1037135
22:00−26юз349697 0.0 103875
28 февраля, вс
вс2801:00−28ююз349895 0.0 103956
04:00−29ююз349784 0.0 103945
07:00−30ю339558 0.0 104026
10:00−28ю369467 0.0 1039150
13:00−21ююв359269 0.0 1036297
16:00−18ююв468869 0.0 1033423
19:00−19вюв359584 0.0 103191
22:00−17юв4796100 0.1 1028154
1 марта, пн
пн101:00−13юв4895100 0.4 1024284
04:00−11юв4995100 0.4 1021298
07:00−10юв4895100 1.2 1017311
10:00−7юв5895100 1.0 1014466
13:00−5юв4794100 2.1 1011522
16:00−4вюв5996100 2.4 1010567
19:00−5св6996100 7.7 1009239
22:00−10св5994100 1.7 1009292
2 марта, вт
вт201:00−12ссв489399 2.2 1011284
04:00−15ссв369692 0.1 1013224
07:00−17св249795 0.3 1016150
10:00−16всв3495100 0.4 1016247
13:00−13всв2390100 0.8 1016354
16:00−11св1191100 0.5 1016275
19:00−13ссв2296100 0.8 101735
22:00−14всв249699 0.2 1017101
3 марта, ср
ср301:00−17в2396100 0.3 101637
04:00−18в239694 0.0 101539
07:00−18всв359597 0.1 1016110
10:00−17всв3595100 0.2 1015235
13:00−15св3493100 0.4 1016315
16:00−14св4593100 0.3 1016388
19:00−16св4696100 0.8 1018272
22:00−19св3697100 0.2 1020201